World > North America > United States > Iowa

Hourly Buckcreek, IA Regional Weather

Feedback E-mail the Weather

Quick WX

Buckcreek, IA Weather Maps

°F °C°F °C
Buckcreek Weather Map
UTC Time: 6/30/2022, 22:53
Your Time:

Buckcreek, IA Regional Weather

Expires:202206302300;;461259
ASUS43 KDMX 302206
RWRIA 

WEATHER ROUNDUP FOR IOWA
NATIONAL WEATHER SERVICE DES MOINES IA
500 PM CDT THU JUN 30 2022

NOTE: "FAIR" INDICATES FEW OR NO CLOUDS BELOW 12,000 FEET WITH NO
SIGNIFICANT WEATHER AND/OR OBSTRUCTIONS TO VISIBILITY.

* - THESE STATIONS ARE NOT NWS STATIONS...THUS NOT UNDER NWS
QUALITY CONTROL.  THEY ALSO DO NOT REPORT WEATHER SUCH 
AS PRECIPITATION OR FOG.  


IAZ007>011-017>019-026>030-037>042-050>054-066-302300-
   NORTHEAST IOWA
  
CITY           SKY/WX    TMP DP  RH WIND       PRES   REMARKS
CEDAR RAPIDS   PTSUNNY   85  61  44 S16       29.89S HX  85           
CHARLES CITY * PTSUNNY   82  66  57 W7        29.86R HX  85           
CLINTON *      MOSUNNY   86  63  45 S14G23    29.92F HX  87           
DECORAH *      PTSUNNY   82  64  54 VRB7      29.85S HX  84           
DUBUQUE        PTSUNNY   84  62  47 S16       29.90F HX  85           
MONTICELLO *     N/A    N/A N/A N/A MISG        N/A                   
OELWEIN *      SUNNY     86  64  48 S16       29.87F HX  87           
WATERLOO       PTSUNNY   87  64  46 S13       29.85S HX  88           
$$
 

SKY/WX - Weather  TMP - Temperature  DP - Dew Point  RH - Humidity
WIND - Wind Direction/Speed PRES - Barometric Pressure VSB - Visibility
WCI - Wind Chill Index E13G22 Wind - East Wind 13 mph/Gusts of 22 mph

Trending Headlines

Buckcreek Radar Loop



Buckcreek Quick Facts


National Two Day Weather Forecast


E-mail the Buckcreek Weather Forecast

Voice your opinion or tell us about page issues...